"2010-05-23 00:00:00",135820,14.11,254,1.642,0.283,21.34,110.1159,25.19,26.12,8.74,0,111,13.22,26.03,216.0
"2010-05-23 00:00:30",135821,14.36,254.1,2.696,0.458,21.38,110.118,25.2,26.09,8.75,0,111,13.23,26.04,216.1
"2010-05-23 00:01:00",135822,13.12,246.4,4.759,0.561,21.31,110.1177,25.2,26.09,8.8,0,111,13.22,26.04,208.4
"2010-05-23 00:01:30",135823,13.34,250.3,2.626,0.896,21.33,110.1153,25.19,26.09,8.86,0,111,13.22,26.03,212.3
"2010-05-23 00:02:00",135824,13.71,251.7,3.811,0.813,21.36,110.1168,25.19,26.1,8.99,0,111,13.22,26.03,213.7
"2010-05-23 00:02:30",135825,14.13,248.3,4.216,0.835,21.39,110.115,25.19,26.09,9.03,0,111,13.22,26.03,210.3
"2010-05-23 00:03:00",135826,13.86,251.4,3.001,0.668,21.41,110.1137,25.19,26.09,9.08,0,111,13.22,26.03,213.4
"2010-05-23 00:03:30",135827,13.12,251.5,5.586,0.597,21.41,110.1146,25.19,26.09,8.91,0,111,13.22,26.03,213.5
"2010-05-23 00:04:00",135828,13.57,251.5,6.704,1.042,21.38,110.1125,25.18,26.09,9.1,0,111,13.22,26.02,213.5
"2010-05-23 00:04:30",135829,14.13,250.5,4.666,1.283,21.38,110.1128,25.18,26.09,9.34,0,111,13.22,26.02,212.5
"2010-05-23 00:05:00",135830,14.9,248.1,6.701,0.638,21.44,110.1125,25.18,26.09,9.25,0,111,13.22,26.02,210.1
"2010-05-23 00:05:30",135831,13.09,249.1,3.131,0.856,21.44,110.1125,25.18,26.1,9.02,0,111,13.22,26.02,211.1
"2010-05-23 00:06:00",135832,13.89,251.3,2.063,0.71,21.5,110.1175,25.2,26.11,9.06,0,111,13.22,26.04,213.3
"2010-05-23 00:06:30",135833,13.08,251.4,1.776,0.308,21.43,110.1251,25.22,26.12,8.58,0,111,13.22,26.06,213.4
"2010-05-23 00:07:00",135834,13.12,251.3,1.938,0.469,21.46,110.1377,25.25,26.12,8.79,0,111,13.22,26.09,213.3
"2010-05-23 00:07:30",135835,13.69,247.5,1.802,0.758,21.39,110.1448,25.27,26.14,8.83,0,111,13.22,26.11,209.5
"2010-05-23 00:08:00",135836,13.58,248.5,1.7,0.384,21.38,110.1447,25.27,26.13,8.62,0,111,13.22,26.11,210.5
"2010-05-23 00:08:30",135837,13.23,245.2,3.239,0.482,21.37,110.1413,25.26,26.14,8.81,0,111,13.22,26.10,207.2
"2010-05-23 00:09:00",135838,13.95,245.1,2.129,0.807,21.38,110.1416,25.26,26.15,9.07,0,111,13.22,26.10,207.1
"2010-05-23 00:09:30",135839,14.48,244,3.734,0.556,21.46,110.1422,25.26,26.15,8.84,0,111,13.22,26.10,206.0
"2010-05-23 00:10:00",135840,15.09,245.7,1.391,0.477,21.45,110.1425,25.26,26.16,8.84,0,111,13.22,26.10,207.7
"2010-05-23 00:10:30",135841,15.43,247.1,4.703,0.853,21.43,110.1397,25.25,26.16,9.08,0,111,13.22,26.09,209.1
"2010-05-23 00:11:00",135842,16.2,250.6,2.083,0.272,21.55,110.141,25.26,26.17,8.43,0,111,13.22,26.10,212.6
"2010-05-23 00:11:30",135843,16.04,252.8,1.666,0.433,21.47,110.1418,25.26,26.17,8.34,0,111,13.22,26.10,214.8
"2010-05-23 00:12:00",135844,15.64,253.1,1.925,0.461,21.55,110.1417,25.26,26.19,8.23,0,111,13.22,26.10,215.1
"2010-05-23 00:12:30",135845,15.03,255.8,1.497,0.497,21.6,110.1486,25.28,26.18,8.1,0,111,13.22,26.12,217.8
"2010-05-23 00:13:00",135846,15.01,250.5,4.601,0.681,21.51,110.1635,25.31,26.19,8.21,0,111,13.22,26.15,212.5
"2010-05-23 00:13:30",135847,14.89,244.6,1.919,0.733,21.46,110.1642,25.32,26.19,8.36,0,111,13.22,26.16,206.6
"2010-05-23 00:14:00",135848,14.66,240.4,5.276,1.063,21.46,110.1664,25.32,26.21,8.35,0,111,13.22,26.16,202.4
"2010-05-23 00:14:30",135849,13.68,231.3,4.701,0.636,21.42,110.1675,25.32,26.21,8.42,0,111,13.22,26.17,193.3
"2010-05-23 00:15:00",135850,12.74,236.2,2.565,0.329,21.4,110.1694,25.33,26.22,8.49,0,111,13.22,26.17,198.2
"2010-05-23 00:15:30",135851,12.4,239.9,2.797,0.881,21.41,110.1654,25.32,26.21,8.41,0,111,13.22,26.16,201.9
"2010-05-23 00:16:00",135852,14.37,248.4,3.065,0.576,21.46,110.1674,25.32,26.21,8.55,0,111,13.22,26.16,210.4
"2010-05-23 00:16:30",135853,12.75,251.5,2.972,0.755,21.46,110.16,25.31,26.21,8.57,0,111,13.22,26.15,213.5
"2010-05-23 00:17:00",135854,13.68,253.2,3.77,1.043,21.49,110.1509,25.28,26.22,8.63,0,111,13.22,26.12,215.2
"2010-05-23 00:17:30",135855,11.77,253.1,6.371,0.99,21.39,110.1452,25.27,26.21,8.82,0,111,13.22,26.11,215.1
"2010-05-23 00:18:00",135856,11.41,247.6,2.833,0.551,21.37,110.1453,25.27,26.19,8.89,0,111,13.22,26.11,209.6
"2010-05-23 00:18:30",135857,11.21,250.5,3.009,0.394,21.35,110.1431,25.26,26.18,8.99,0,111,13.22,26.10,212.5
"2010-05-23 00:19:00",135858,10.4,255.9,5.405,0.462,21.3,110.1406,25.26,26.17,9.17,0,111,13.22,26.10,217.9
"2010-05-23 00:19:30",135859,12.62,255.8,3.228,1.32,21.41,110.1183,25.2,26.15,9.21,0,111,13.22,26.04,217.8
"2010-05-23 00:20:00",135860,14.03,255.8,4.79,0.98,21.49,110.1138,25.19,26.13,8.94,0,111,13.21,26.03,217.8
"2010-05-23 00:20:30",135861,11.97,250.4,3.895,0.588,21.38,110.1097,25.18,26.12,9.1,0,111,13.21,26.02,212.4
"2010-05-23 00:21:00",135862,10.87,245.9,2.572,0.39,21.35,110.1091,25.17,26.11,9.34,0,111,13.22,26.01,207.9
"2010-05-23 00:21:30",135863,13.38,254.4,3.396,1.326,21.41,110.1106,25.18,26.1,9.33,0,111,13.21,26.02,216.4
"2010-05-23 00:22:00",135864,13.5,254.4,3.757,0.49,21.41,110.1109,25.18,26.1,8.94,0,111,13.22,26.02,216.4
"2010-05-23 00:22:30",135865,14.61,260.6,4.526,0.868,21.34,110.1116,25.18,26.09,9.16,0,111,13.21,26.02,222.6
"2010-05-23 00:23:00",135866,13.3,263.5,3.494,0.629,21.3,110.1082,25.17,26.07,9.43,0,111,13.22,26.01,225.5
"2010-05-23 00:23:30",135867,13.97,265.3,0.567,0.317,21.33,110.1024,25.16,26.06,8.54,0,111,13.22,26.00,227.3
"2010-05-23 00:24:00",135868,14.19,261.9,1.575,0.522,21.37,110.1008,25.15,26.06,8.4,0,111,13.22,25.99,223.9
"2010-05-23 00:24:30",135869,13.96,262.9,1.033,0.27,21.43,110.0986,25.15,26.06,8.39,0,111,13.22,25.99,224.9
"2010-05-23 00:25:00",135870,13.27,263.3,1.005,0.496,21.5,110.0963,25.14,26.05,8.34,0,111,13.22,25.98,225.3
"2010-05-23 00:25:30",135871,12.19,262.7,1.373,0.234,21.47,110.0915,25.13,26.06,8.41,0,111,13.22,25.97,224.7
"2010-05-23 00:26:00",135872,12.04,267.7,2.755,0.259,21.45,110.0856,25.11,26.05,8.6,0,111,13.22,25.95,229.7
"2010-05-23 00:26:30",135873,12.44,274.3,3.222,0.539,21.34,110.079,25.1,26.04,8.84,0,111,13.22,25.94,236.3
"2010-05-23 00:27:00",135874,11.78,271.2,3.376,0.673,21.38,110.0746,25.09,26.03,8.82,0,111,13.22,25.93,233.2
"2010-05-23 00:27:30",135875,12.1,267.7,4.125,0.6,21.35,110.0691,25.07,26.02,8.94,0,111,13.22,25.91,229.7
"2010-05-23 00:28:00",135876,11.58,270,1.926,0.461,21.33,110.0691,25.07,26.01,9.16,0,111,13.22,25.91,232.0
"2010-05-23 00:28:30",135877,12.44,270.2,2.719,0.516,21.38,110.0673,25.07,26,8.98,0,111,13.21,25.91,232.2
"2010-05-23 00:29:00",135878,13.49,268.1,0.939,0.509,21.38,110.0626,25.06,26,8.96,0,111,13.21,25.89,230.1
"2010-05-23 00:29:30",135879,12.86,268.5,1.994,0.508,21.41,110.0636,25.06,25.98,8.86,0,111,13.21,25.90,230.5
"2010-05-23 00:30:00",135880,11.64,265.1,1.342,0.463,21.47,110.0636,25.06,25.98,8.65,0,111,13.21,25.90,227.1
"2010-05-23 00:30:30",135881,12.51,267.8,2.427,0.414,21.31,110.0549,25.04,25.98,8.97,0,111,13.21,25.87,229.8
"2010-05-23 00:31:00",135882,11.94,264,1.931,0.527,21.52,110.0497,25.02,25.97,8.83,0,111,13.21,25.86,226.0
"2010-05-23 00:31:30",135883,12,265.8,1.744,0.321,21.35,110.0411,25,25.97,8.77,0,111,13.21,25.84,227.8
"2010-05-23 00:32:00",135884,12,263.1,1.923,0.277,21.42,110.0305,24.97,25.95,8.77,0,111,13.21,25.81,225.1
"2010-05-23 00:32:30",135885,11.67,263.8,1.61,0.43,21.35,110.0262,24.96,25.93,8.8,0,111,13.21,25.80,225.8
"2010-05-23 00:33:00",135886,11.17,263.6,1.684,0.182,21.41,110.0209,24.95,25.93,8.81,0,111,13.21,25.79,225.6
"2010-05-23 00:33:30",135887,10.81,262.9,2.225,0.249,21.33,110.0206,24.95,25.93,8.89,0,111,13.21,25.79,224.9
"2010-05-23 00:34:00",135888,10.46,259.4,3.01,0.301,21.39,110.0199,24.95,25.92,8.92,0,111,13.21,25.78,221.4
"2010-05-23 00:34:30",135889,10.7,265.6,1.581,0.155,21.4,110.0187,24.94,25.9,8.86,0,111,13.21,25.78,227.6
"2010-05-23 00:35:00",135890,10.73,263.8,2.154,0.487,21.5,110.0181,24.94,25.9,8.93,0,111,13.21,25.78,225.8
"2010-05-23 00:35:30",135891,10.15,264,1.832,0.407,21.59,110.0142,24.93,25.87,8.91,0,111,13.21,25.77,226.0
"2010-05-23 00:36:00",135892,9.55,263.9,1.272,0.43,21.72,109.9965,24.89,25.88,8.91,0,111,13.21,25.72,225.9
"2010-05-23 00:36:30",135893,9.91,262.8,2.187,0.344,21.76,109.9857,24.86,25.86,8.94,0,111,13.2,25.70,224.8
"2010-05-23 00:37:00",135894,9.59,264,3.833,0.279,21.82,109.9841,24.85,25.84,8.97,0,111,13.2,25.69,226.0
"2010-05-23 00:37:30",135895,9.31,262.1,1.962,0.464,21.75,109.9862,24.86,25.84,9,0,111,13.2,25.70,224.1
"2010-05-23 00:38:00",135896,9.38,265.2,4.488,0.365,21.72,109.985,24.86,25.82,9.13,0,111,13.2,25.69,227.2
"2010-05-23 00:38:30",135897,9.63,270.1,2.26,0.581,21.73,109.9875,24.86,25.8,9.15,0,111,13.2,25.70,232.1
"2010-05-23 00:39:00",135898,10.34,271.4,1.382,0.402,21.64,109.9734,24.83,25.79,9.23,0,111,13.2,25.66,233.4
"2010-05-23 00:39:30",135899,10.89,273.4,2.007,0.286,21.68,109.9625,24.8,25.79,9.16,0,111,13.2,25.64,235.4
"2010-05-23 00:40:00",135900,9.89,282.2,5.378,0.686,21.58,109.9679,24.81,25.76,9.41,0,111,13.2,25.65,244.2
"2010-05-23 00:40:30",135901,10.71,282,2.832,0.343,21.64,109.9636,24.8,25.74,9.44,0,111,13.2,25.64,244.0
"2010-05-23 00:41:00",135902,11.08,285.7,1.496,0.272,21.59,109.9517,24.77,25.71,9.37,0,111,13.21,25.61,247.7
"2010-05-23 00:41:30",135903,10.07,287.8,4.503,0.92,21.27,109.9303,24.72,25.68,9.83,0,111,13.21,25.55,249.8
"2010-05-23 00:42:00",135904,5.024,267.6,35.91,3.36,18.41,109.7849,24.34,25.53,11.93,0,111,13.21,25.18,229.6
"2010-05-23 00:42:30",135905,4.796,317.9,24.67,3.107,17.04,109.4131,23.39,25.15,15.38,0,111,13.21,24.22,279.9
"2010-05-23 00:43:00",135906,6.821,261,66.28,2.793,18.59,109.2459,22.96,24.76,14.5,0,111,13.22,23.79,223.0
"2010-05-23 00:43:30",135907,11.76,79.45,14.6,3.123,16.11,109.1177,22.63,24.41,17.57,0,111,13.22,23.46,41.4
"2010-05-23 00:44:00",135908,10.5,86.6,9.37,2.013,16.26,108.985,22.29,24,20.65,0,110.9,13.22,23.12,48.6
"2010-05-23 00:44:30",135909,13.57,71.79,6.221,1.885,16.34,108.7982,21.81,23.56,21.18,0,110.9,13.22,22.64,33.8
"2010-05-23 00:45:00",135910,17.04,68.46,2.967,0.794,15.11,108.6631,21.46,23.22,23.11,0,110.9,13.23,22.29,30.5
"2010-05-23 00:45:30",135911,16.19,65.48,3.482,0.593,15.28,108.5058,21.06,22.88,24.58,0,110.9,13.23,21.88,27.5
"2010-05-23 00:46:00",135912,15.96,67.06,4.187,1.403,16.49,108.4022,20.79,22.55,24.53,0,110.9,13.23,21.62,29.1
"2010-05-23 00:46:30",135913,14.39,70.37,7.487,1.33,18.41,108.2661,20.44,22.16,22.09,0,110.9,13.24,21.27,32.4
"2010-05-23 00:47:00",135914,15.75,57.76,4.498,0.764,16.11,108.1154,20.06,21.77,25.13,0,110.9,13.24,20.88,19.8
"2010-05-23 00:47:30",135915,16.63,58.27,5.343,1.404,16.21,107.9792,19.71,21.35,26.04,0,110.8,13.24,20.53,20.3
"2010-05-23 00:48:00",135916,17.92,52.77,2.798,0.926,16.65,107.8816,19.46,21.01,26.29,0,110.8,13.26,20.28,14.8
"2010-05-23 00:48:30",135917,16.96,51.09,3.416,1.091,16.56,107.8083,19.27,20.79,26.48,0,110.7,13.28,20.09,13.1
"2010-05-23 00:49:00",135918,15.86,52.55,3.6,1.083,16.05,107.692,18.97,20.57,27.23,0,110.7,13.29,19.79,14.5
"2010-05-23 00:49:30",135919,15.81,53.93,3.468,0.733,16.28,107.569,18.65,20.31,28.34,0,110.7,13.3,19.47,15.9
"2010-05-23 00:50:00",135920,16.05,53.02,2.053,0.798,16.08,107.4693,18.4,20.06,28.72,0,110.6,13.32,19.21,15.0
"2010-05-23 00:50:30",135921,15.19,54.39,2.68,0.762,16.87,107.3722,18.15,19.82,28.46,0,110.6,13.33,18.96,16.4
"2010-05-23 00:51:00",135922,17.44,56.93,2.743,0.796,16.02,107.2806,17.91,19.57,29.25,0,110.6,13.33,18.73,18.9
"2010-05-23 00:51:30",135923,17.27,56.37,2.899,0.91,15.84,107.1926,17.69,19.35,29.83,0,110.5,13.34,18.50,18.4
"2010-05-23 00:52:00",135924,14.48,59.64,3.209,1.56,16,107.1028,17.46,19.12,31.29,0,110.5,13.35,18.27,21.6
"2010-05-23 00:52:30",135925,16.33,56.85,2.577,2.056,16.26,107.0457,17.31,18.88,29.26,0,110.5,13.36,18.12,18.8
"2010-05-23 00:53:00",135926,17.35,55.25,1.875,0.478,15.46,106.9849,17.16,18.7,31.15,0,110.5,13.37,17.97,17.2
"2010-05-23 00:53:30",135927,17.6,55.68,2.204,0.521,15.41,106.9164,16.98,18.53,32.29,0,110.5,13.37,17.79,17.7
"2010-05-23 00:54:00",135928,17.6,54.54,1.23,0.552,16.98,106.868,16.86,18.36,30.25,0,110.5,13.38,17.67,16.5
"2010-05-23 00:54:30",135929,17.54,54.85,1.14,0.495,16,106.8333,16.77,18.22,31.23,0,110.4,13.38,17.58,16.8
"2010-05-23 00:55:00",135930,18.01,54.94,1.04,0.421,15.33,106.7859,16.65,18.07,32.37,0,110.4,13.39,17.46,16.9
"2010-05-23 00:55:30",135931,16.32,54.23,1.336,0.555,15.27,106.7335,16.51,17.93,32.69,0,110.4,13.39,17.32,16.2
"2010-05-23 00:56:00",135932,15.43,51.89,1.874,0.336,14.7,106.6664,16.34,17.81,34.56,0,110.4,13.39,17.15,13.9
"2010-05-23 00:56:30",135933,16.71,56.76,5.892,1.336,16.62,106.6238,16.23,17.78,35.36,0,110.4,13.37,17.04,18.8
"2010-05-23 00:57:00",135934,17.88,63.36,5.75,1.174,18.83,106.5578,16.06,17.75,36.01,0,110.4,13.37,16.87,25.4
"2010-05-23 00:57:30",135935,19.32,66.97,4.62,0.753,19.23,106.4721,15.84,17.67,36.43,0,110.4,13.37,16.65,29.0
"2010-05-23 00:58:00",135936,19.25,65.62,6.361,1.067,18.03,106.4061,15.67,17.43,36.59,0,110.4,13.38,16.48,27.6
"2010-05-23 00:58:30",135937,18.44,62.32,7.282,1.772,16.43,106.3658,15.57,17.15,35.91,0,110.3,13.38,16.38,24.3
"2010-05-23 00:59:00",135938,17.54,56.31,1.838,0.557,13.49,106.3087,15.42,16.86,36.08,0,110.3,13.42,16.23,18.3
"2010-05-23 00:59:30",135939,17.33,58.58,1.577,0.339,13.68,106.2654,15.31,16.71,36.38,0,110.3,13.42,16.12,20.6
"2010-05-23 01:00:00",135940,17.48,58.57,1.586,0.604,13.86,106.2088,15.17,16.57,36.95,0,110.3,13.43,15.97,20.6
"2010-05-23 01:00:30",135941,19.68,64.33,6.278,1.427,15.91,106.1487,15.01,16.46,36.69,0,110.3,13.4,15.82,26.3
"2010-05-23 01:01:00",135942,20.44,68.46,7.428,1.452,17.4,106.1019,14.89,16.54,37.2,0,110.3,13.4,15.70,30.5
"2010-05-23 01:01:30",135943,21.01,72.23,6.135,1.294,17.9,106.0472,14.75,16.45,37.66,0,110.3,13.41,15.56,34.2
"2010-05-23 01:02:00",135944,21.67,72.68,5.259,1.153,17.95,106.0023,14.64,16.35,37.99,0,110.3,13.41,15.44,34.7
"2010-05-23 01:02:30",135945,21.2,70.25,5.967,1.248,16.77,105.9554,14.52,16.11,38.03,0,110.3,13.42,15.32,32.2
"2010-05-23 01:03:00",135946,20.39,66.83,6.504,1.478,15.39,105.9242,14.44,15.94,38.29,0,110.3,13.42,15.24,28.8
"2010-05-23 01:03:30",135947,20.14,60.78,1.631,0.418,13.16,105.8968,14.37,15.67,38.25,0,110.3,13.45,15.17,22.8
"2010-05-23 01:04:00",135948,20.98,65.18,5.328,1.284,14.9,105.8703,14.3,15.7,38.47,0,110.3,13.43,15.10,27.2
"2010-05-23 01:04:30",135949,21.5,71.3,6.9,1.505,16.96,105.8406,14.22,15.7,38.86,0,110.3,13.43,15.03,33.3
"2010-05-23 01:05:00",135950,21.28,71.13,7.045,1.311,16.69,105.806,14.14,15.64,39.52,0,110.3,13.43,14.94,33.1
"2010-05-23 01:05:30",135951,21.88,74.31,5.306,1.13,17.98,105.771,14.05,15.53,39.99,0,110.3,13.43,14.85,36.3
"2010-05-23 01:06:00",135952,20.81,70.42,6.917,1.553,17.04,105.7478,13.99,15.43,39.02,0,110.3,13.43,14.79,32.4
"2010-05-23 01:06:30",135953,19.88,68.05,6.812,1.119,15.84,105.7216,13.92,15.33,39.71,0,110.3,13.43,14.72,30.1
"2010-05-23 01:07:00",135954,17.54,61.33,2.824,1.395,14.17,105.6987,13.86,15.04,39.16,0,110.3,13.47,14.66,23.3
"2010-05-23 01:07:30",135955,18.12,61.63,1.703,1.046,13.95,105.7202,13.92,14.98,38.84,0,110.3,13.47,14.72,23.6
"2010-05-23 01:08:00",135956,18.98,68.33,7.418,0.965,17.18,105.717,13.91,15.07,38.7,0,110.3,13.43,14.71,30.3
"2010-05-23 01:08:30",135957,19.31,65.75,6.67,1.701,16.39,105.717,13.91,15.1,39.47,0,110.3,13.43,14.71,27.8
"2010-05-23 01:09:00",135958,20.25,68.36,6.949,1.194,16.53,105.7173,13.91,15.11,40.55,0,110.3,13.43,14.71,30.4
"2010-05-23 01:09:30",135959,20.61,72.49,5.368,1.094,17.98,105.6894,13.84,15.17,40.72,0,110.3,13.43,14.64,34.5
"2010-05-23 01:10:00",135960,21.5,71.78,4.71,1.097,17.74,105.6601,13.76,15.15,40.65,0,110.3,13.43,14.56,33.8
"2010-05-23 01:10:30",135961,20.22,70.29,4.67,1.135,16.84,105.6414,13.71,15.08,40.69,0,110.3,13.42,14.51,32.3
"2010-05-23 01:11:00",135962,18.24,62.39,7.475,1.17,14.67,105.6084,13.63,14.9,40.87,0,110.3,13.42,14.43,24.4
"2010-05-23 01:11:30",135963,18.65,63.25,5.27,1.009,14.81,105.5854,13.57,14.84,41.16,0,110.3,13.43,14.37,25.2
"2010-05-23 01:12:00",135964,18.5,58.14,1.593,0.609,13.03,105.5572,13.5,14.72,41.33,0,110.2,13.46,14.30,20.1
"2010-05-23 01:12:30",135965,17.86,57.15,3.106,0.899,13.21,105.5396,13.45,14.58,41.55,0,110.2,13.44,14.25,19.2
"2010-05-23 01:13:00",135966,18,60.25,5.069,0.982,15.14,105.5314,13.43,14.72,41.95,0,110.2,13.44,14.23,22.2
"2010-05-23 01:13:30",135967,20.91,69.27,4.43,1.315,18.52,105.5071,13.37,14.82,42.26,0,110.2,13.44,14.17,31.3
"2010-05-23 01:14:00",135968,20.56,68.63,4.367,0.687,18,105.5004,13.35,14.73,42.15,0,110.2,13.44,14.15,30.6
"2010-05-23 01:14:30",135969,20.23,68.41,5.367,1.122,16.62,105.4771,13.29,14.67,42.33,0,110.2,13.44,14.09,30.4
"2010-05-23 01:15:00",135970,19.64,62.33,5.094,1.112,14.05,105.4774,13.29,14.47,42.17,0,110.2,13.44,14.09,24.3
"2010-05-23 01:15:30",135971,18.75,60.29,5.336,1.211,13.35,105.4495,13.22,14.34,42.26,0,110.2,13.44,14.02,22.3
"2010-05-23 01:16:00",135972,17.96,59.1,1.556,0.523,12.95,105.4423,13.2,14.27,42.35,0,110.2,13.48,14.00,21.1
"2010-05-23 01:16:30",135973,19.72,65.73,6.567,1.566,15.94,105.4185,13.14,14.38,42.65,0,110.2,13.45,13.94,27.7
"2010-05-23 01:17:00",135974,19.7,68.16,5.224,1.113,16.94,105.407,13.11,14.46,43.07,0,110.2,13.45,13.91,30.2
"2010-05-23 01:17:30",135975,20.2,72.6,3.925,0.886,17.81,105.3862,13.06,14.43,43.4,0,110.2,13.46,13.86,34.6
"2010-05-23 01:18:00",135976,20.09,75.11,2.998,0.773,17.53,105.3625,13,14.39,43.46,0,110.2,13.46,13.80,37.1
"2010-05-23 01:18:30",135977,20.32,73.01,3.722,0.939,17.1,105.3486,12.96,14.35,43.68,0,110.3,13.46,13.76,35.0
"2010-05-23 01:19:00",135978,18.23,67.36,5.539,1.162,13.57,105.3229,12.9,14.09,43.61,0,110.2,13.46,13.70,29.4
"2010-05-23 01:19:30",135979,17.85,62.58,1.017,0.299,12.32,105.3156,12.88,13.93,43.66,0,110.2,13.49,13.68,24.6
"2010-05-23 01:20:00",135980,16.75,63.14,1.449,0.675,12.63,105.2888,12.81,13.88,43.85,0,110.2,13.5,13.61,25.1
"2010-05-23 01:20:30",135981,18.19,71.18,6.261,1.378,15.5,105.2829,12.8,13.93,44.23,0,110.2,13.47,13.59,33.2
"2010-05-23 01:21:00",135982,18.76,70.74,6.455,1.193,16.6,105.2558,12.73,14.02,44.5,0,110.2,13.47,13.52,32.7
"2010-05-23 01:21:30",135983,19.72,75.97,4.232,0.951,18.08,105.2507,12.71,14.1,44.82,0,110.2,13.47,13.51,38.0
"2010-05-23 01:22:00",135984,20.07,74.48,4.529,0.902,17.45,105.2462,12.7,14.04,44.91,0,110.2,13.47,13.50,36.5
"2010-05-23 01:22:30",135985,19.22,71.64,5.902,1.251,15.99,105.2188,12.63,13.98,45.04,0,110.2,13.46,13.43,33.6
"2010-05-23 01:23:00",135986,18.27,64.68,5.909,1.067,13.22,105.2168,12.63,13.71,44.66,0,110.2,13.46,13.42,26.7
"2010-05-23 01:23:30",135987,18.07,62.86,1.039,0.59,12.47,105.214,12.62,13.64,44.56,0,110.2,13.5,13.42,24.9
"2010-05-23 01:24:00",135988,17.92,61.58,2.006,0.725,12.89,105.1996,12.58,13.7,44.82,0,110.2,13.5,13.38,23.6
"2010-05-23 01:24:30",135989,19.08,72.66,5.935,1.147,16.73,105.1829,12.54,13.83,45,0,110.2,13.47,13.34,34.7
"2010-05-23 01:25:00",135990,19.48,73.67,4.058,0.655,18,105.1829,12.54,13.89,45.28,0,110.2,13.47,13.34,35.7
"2010-05-23 01:25:30",135991,19.1,73.63,4.136,0.753,17.55,105.1829,12.54,13.82,45.3,0,110.2,13.47,13.34,35.6
"2010-05-23 01:26:00",135992,18.27,68.44,6.553,1.417,15.58,105.1824,12.54,13.74,45.23,0,110.2,13.46,13.34,30.4
"2010-05-23 01:26:30",135993,16.29,63.63,5.281,1.354,13.98,105.1699,12.51,13.62,45.44,0,110.2,13.46,13.30,25.6
"2010-05-23 01:27:00",135994,16.17,58.11,2.401,0.518,12.63,105.151,12.46,13.51,45.29,0,110.2,13.5,13.25,20.1
"2010-05-23 01:27:30",135995,16.04,64.84,5.771,1.194,15.84,105.149,12.45,13.73,45.87,0,110.2,13.46,13.25,26.8
"2010-05-23 01:28:00",135996,18.02,65.14,5.839,1.386,16.69,105.149,12.45,13.71,45.94,0,110.1,13.46,13.25,27.1
"2010-05-23 01:28:30",135997,17.33,62.88,7.075,1.165,16.37,105.149,12.45,13.69,46.07,0,110.2,13.46,13.25,24.9
"2010-05-23 01:29:00",135998,19.14,65.94,5.822,1.321,16.54,105.149,12.45,13.68,45.63,0,110.2,13.46,13.25,27.9
"2010-05-23 01:29:30",135999,18.67,67.17,6.181,1.045,16.56,105.1488,12.45,13.6,45.68,0,110.2,13.46,13.25,29.2
"2010-05-23 01:30:00",136000,16.41,55.25,1.894,0.573,12.7,105.14,12.43,13.41,45.55,0,110.2,13.46,13.23,17.2
"2010-05-23 01:30:30",136001,16.79,58.41,6.774,1.426,14.85,105.1284,12.4,13.55,45.79,0,110.2,13.46,13.20,20.4
"2010-05-23 01:31:00",136002,17.65,66.42,6.955,1.314,16.08,105.1157,12.37,13.64,45.96,0,110.1,13.46,13.16,28.4
"2010-05-23 01:31:30",136003,17.86,60.82,6.83,1.553,15.1,105.1152,12.37,13.51,45.79,0,110.2,13.47,13.16,22.8
"2010-05-23 01:32:00",136004,18.02,62.65,7.975,1.408,15.54,105.1152,12.37,13.58,46.01,0,110.2,13.47,13.16,24.7
"2010-05-23 01:32:30",136005,17.09,65.53,5.377,2.055,16.41,105.1152,12.37,13.61,46.08,0,110.2,13.47,13.16,27.5
"2010-05-23 01:33:00",136006,15.7,58.55,6.207,1.329,14.24,105.1149,12.37,13.46,45.98,0,110.2,13.47,13.16,20.5
"2010-05-23 01:33:30",136007,16.76,60.71,3.546,0.865,13.09,105.0912,12.31,13.39,46.02,0,110.2,13.47,13.10,22.7
"2010-05-23 01:34:00",136008,18.78,69.82,6.436,1.166,16.31,105.0816,12.28,13.52,45.65,0,110.2,13.47,13.08,31.8
"2010-05-23 01:34:30",136009,16.57,63.78,6.173,1.356,14.37,105.0813,12.28,13.4,45.95,0,110.2,13.47,13.08,25.8
"2010-05-23 01:35:00",136010,15.47,65.64,6.768,0.955,15.11,105.0813,12.28,13.51,46.39,0,110.2,13.47,13.08,27.6
"2010-05-23 01:35:30",136011,16.9,70.45,6.055,1.22,16.44,105.0683,12.25,13.49,46.1,0,110.2,13.47,13.04,32.4
"2010-05-23 01:36:00",136012,17.02,69.7,7.771,1.506,15.43,105.0488,12.2,13.44,46.25,0,110.2,13.47,12.99,31.7
"2010-05-23 01:36:30",136013,15.45,62.93,6.478,1.639,13.29,105.0477,12.19,13.21,46.11,0,110.2,13.47,12.99,24.9
"2010-05-23 01:37:00",136014,15.5,67.22,7.814,1.506,14.77,105.0495,12.2,13.42,46.62,0,110.2,13.47,12.99,29.2
"2010-05-23 01:37:30",136015,16.16,63.5,8.55,1.256,14.46,105.0244,12.13,13.36,46.48,0,110.2,13.48,12.93,25.5
"2010-05-23 01:38:00",136016,17.19,67.5,5.874,1.104,16.3,105.0168,12.12,13.27,46.4,0,110.2,13.47,12.91,29.5
"2010-05-23 01:38:30",136017,17.33,69.67,6.069,1.106,16.28,105.0195,12.12,13.33,46.43,0,110.2,13.48,12.92,31.7
"2010-05-23 01:39:00",136018,17.19,65.09,7.423,1.53,15.6,105.0201,12.12,13.36,46.58,0,110.2,13.48,12.92,27.1
"2010-05-23 01:39:30",136019,17.45,68.78,5.879,1.141,16.33,105.0196,12.12,13.29,46.48,0,110.2,13.47,12.92,30.8
"2010-05-23 01:40:00",136020,16.25,60.3,5.921,0.876,13.67,105.0083,12.09,13.2,46.43,0,110.2,13.48,12.89,22.3
"2010-05-23 01:40:30",136021,17.61,68.41,5.071,1.092,16.04,105.002,12.08,13.22,46.45,0,110.2,13.47,12.87,30.4
"2010-05-23 01:41:00",136022,15.63,60.32,5.241,1.069,13.67,104.9915,12.05,13.2,46.67,0,110.2,13.48,12.84,22.3
"2010-05-23 01:41:30",136023,17.26,67.79,5.315,1.133,17.15,104.9909,12.05,13.31,46.59,0,110.2,13.48,12.84,29.8
"2010-05-23 01:42:00",136024,16.65,66.06,6.142,1.241,16.21,104.9874,12.04,13.2,46.5,0,110.2,13.48,12.83,28.1
"2010-05-23 01:42:30",136025,16.27,66.91,6.652,1.156,16.18,104.9877,12.04,13.33,46.57,0,110.2,13.47,12.84,28.9
"2010-05-23 01:43:00",136026,17.99,67.88,6.855,1.101,15.62,104.9853,12.03,13.14,45.89,0,110.2,13.47,12.83,29.9
"2010-05-23 01:43:30",136027,18.49,64.15,5.755,1.122,14.28,104.9992,12.07,13.14,45.07,0,110.2,13.47,12.86,26.2
"2010-05-23 01:44:00",136028,17.71,62.11,4.669,0.505,13.67,105.0091,12.1,13.19,44.95,0,110.2,13.48,12.89,24.1
"2010-05-23 01:44:30",136029,18.04,69.56,6.738,1.261,15.9,105.015,12.11,13.18,45.3,0,110.2,13.47,12.91,31.6
"2010-05-23 01:45:00",136030,18.45,69.81,6.651,1.117,16.79,105.0083,12.09,13.29,45.66,0,110.2,13.48,12.89,31.8
"2010-05-23 01:45:30",136031,18.08,71.62,4.917,1.244,16.54,105,12.07,13.29,45.65,0,110.2,13.48,12.87,33.6
"2010-05-23 01:46:00",136032,17.56,69.69,5.719,1.176,15.93,104.9886,12.04,13.26,44.5,0,110.2,13.47,12.84,31.7
"2010-05-23 01:46:30",136033,16.08,63.03,5.205,1.205,13.01,104.9868,12.04,13.03,44.88,0,110.2,13.47,12.83,25.0
"2010-05-23 01:47:00",136034,14.97,61.19,4.271,0.91,12.45,104.9886,12.04,13.05,45.22,0,110.2,13.48,12.84,23.2
"2010-05-23 01:47:30",136035,16.66,67.21,6.996,1.488,15.43,104.9936,12.06,13.14,45.2,0,110.2,13.48,12.85,29.2
"2010-05-23 01:48:00",136036,16.23,67.02,6.88,1.209,16.22,104.9847,12.03,13.26,46.09,0,110.2,13.49,12.83,29.0
"2010-05-23 01:48:30",136037,16.93,71.27,4.466,0.93,17.25,104.9651,11.98,13.23,46.41,0,110.2,13.49,12.78,33.3
"2010-05-23 01:49:00",136038,17.11,71.19,4.923,0.699,17.12,104.9686,11.99,13.26,45.93,0,110.2,13.49,12.79,33.2
"2010-05-23 01:49:30",136039,15.41,63.6,5.951,1.733,14.32,104.9699,12,13.02,46.24,0,110.2,13.48,12.79,25.6